모두
New Town Muni Airport (New Town, ND) 05D 기상
There is no TAF data available at 05D or any nearby airports.
There is no METAR data available at 05D. Showing METAR data for 08D (23 mi 북).
최근 08D METAR 이력(05D에 대한 데이터 없음)
| Date | Time (CDT) | Flight Rules | Wind Dir. | Speed | Type | Height AGL (ft) | Visibility | Temp (°C) | Temp (°F) | Dew Point (°C) | Dew Point (°F) | Rel. Humid. | Pressure | Density Altitude | Remarks |
|---|---|---|---|---|---|---|---|---|---|---|---|---|---|---|---|
| 05-9월 | 00:15 | VFR | 110° | 11 kt | 10 miles | 20° | 68° | 19° | 66° | 94% | 29.88 in Hg | 3,364 ft | |||
| 04-9월 | 23:55 | VFR | 110° | 10 kt | 10 miles | 21° | 69° | 18° | 64° | 83% | 29.89 in Hg | 3,474 ft | |||
| 04-9월 | 23:35 | VFR | 110° | 12 kt | 10 miles | 21° | 69° | 19° | 66° | 88% | 29.89 in Hg | 3,474 ft | |||
| 04-9월 | 23:15 | VFR | 100° | 11 kt | 10 miles | 22° | 71° | 18° | 64° | 78% | 29.89 in Hg | 3,594 ft | |||
| 04-9월 | 22:55 | VFR | 100° | 11 kt | 10 miles | 22° | 71° | 19° | 66° | 83% | 29.89 in Hg | 3,594 ft | |||
| 04-9월 | 22:35 | VFR | 90° | 10 kt | 10 miles | 22° | 71° | 19° | 66° | 83% | 29.90 in Hg | 3,584 ft | |||
| 04-9월 | 22:15 | VFR | 90° | 10 kt | 10 miles | 22° | 71° | 19° | 66° | 83% | 29.90 in Hg | 3,584 ft | |||
| 04-9월 | 21:55 | VFR | 90° | 11 kt | 10 miles | 22° | 71° | 19° | 66° | 83% | 29.90 in Hg | 3,584 ft | |||
| 04-9월 | 21:35 | VFR | 100° | 9 kt | 10 miles | 22° | 71° | 19° | 66° | 83% | 29.90 in Hg | 3,584 ft | Wind gusting to 15 KT | ||
| 04-9월 | 21:15 | VFR | 90° | 10 kt | 10 miles | 23° | 73° | 19° | 66° | 78% | 29.90 in Hg | 3,704 ft | |||
| 04-9월 | 20:55 | VFR | 90° | 9 kt | 10 miles | 24° | 75° | 19° | 66° | 74% | 29.89 in Hg | 3,834 ft | Wind gusting to 16 KT | ||
| 04-9월 | 20:35 | VFR | 90° | 12 kt | 10 miles | 24° | 75° | 18° | 64° | 69% | 29.88 in Hg | 3,844 ft | Wind gusting to 17 KT | ||
| 04-9월 | 20:15 | VFR | 90° | 10 kt | 10 miles | 25° | 77° | 18° | 64° | 65% | 29.88 in Hg | 3,964 ft | Wind gusting to 20 KT | ||
| 04-9월 | 19:55 | VFR | 100° | 14 kt | 10 miles | 26° | 78° | 18° | 64° | 61% | 29.87 in Hg | 4,094 ft | Wind gusting to 22 KT | ||
| 04-9월 | 19:35 | VFR | 100° | 12 kt | 10 miles | 26° | 78° | 18° | 64° | 61% | 29.87 in Hg | 4,094 ft | Wind gusting to 21 KT | ||
| 04-9월 | 19:15 | VFR | 100° | 17 kt | 10 miles | 27° | 80° | 17° | 62° | 54% | 29.87 in Hg | 4,214 ft | Wind gusting to 26 KT | ||
| 04-9월 | 18:55 | VFR | 90° | 16 kt | 10 miles | 27° | 80° | 17° | 62° | 54% | 29.87 in Hg | 4,214 ft | Wind gusting to 24 KT | ||
| 04-9월 | 18:35 | VFR | 100° | 18 kt | 10 miles | 28° | 82° | 17° | 62° | 51% | 29.87 in Hg | 4,334 ft | Wind gusting to 25 KT | ||
| 04-9월 | 18:15 | VFR | 100° | 18 kt | 10 miles | 28° | 82° | 17° | 62° | 51% | 29.87 in Hg | 4,334 ft | Wind gusting to 24 KT | ||
| 04-9월 | 17:55 | VFR | 100° | 19 kt | 10 miles | 28° | 82° | 17° | 62° | 51% | 29.87 in Hg | 4,334 ft | |||
| 04-9월 | 17:35 | VFR | 110° | 13 kt | 10 miles | 28° | 82° | 17° | 62° | 51% | 29.87 in Hg | 4,334 ft | Wind gusting to 25 KT | ||
| 04-9월 | 17:15 | VFR | 110° | 18 kt | 10 miles | 28° | 82° | 17° | 62° | 51% | 29.87 in Hg | 4,334 ft | Wind gusting to 24 KT | ||
| 04-9월 | 16:55 | VFR | 110° | 17 kt | 10 miles | 28° | 82° | 17° | 62° | 51% | 29.87 in Hg | 4,334 ft | Wind gusting to 23 KT | ||
| 04-9월 | 16:35 | VFR | 110° | 16 kt | 10 miles | 28° | 82° | 16° | 60° | 48% | 29.87 in Hg | 4,334 ft | Wind gusting to 22 KT |
로그인
| 귀하의 브라우저는 지원되지 않습니다.. 브라우저를 업그레이드하세요 |
